Temp
12 12 11 11 11 10 9 9 9 9 9 9 9 10 9 9 10 9 9 9 9 8 8 8 8 8 8 8 8 8 8 8 8 8 8 8 7 7 7 7 7 6
13 12 11 11 11 10 9 8 8 8 9 9 9 9 9 9 9 9 9 9 8 8 8 7 7 7 7 7 8 8 8 8 7 7 7 7 7 7 7 7 6 6
13 12 11 11 10 9 9 8 7 7 8 9 9 9 8 8 8 9 9 9 8 8 7 7 7 7 7 7 7 8 7 7 7 7 7 7 7 6 6 6 6 5
13 12 12 11 10 9 8 8 7 7 8 8 8 8 8 8 8 8 8 8 8 8 7 7 7 7 7 7 7 7 7 7 7 7 6 6 6 6 6 6 5 5
14 13 13 12 11 10 9 7 7 7 7 8 8 8 8 8 8 8 8 8 8 7 7 7 7 7 7 7 7 7 7 7 6 6 6 6 6 6 6 6 5 5
14 14 13 12 11 10 9 8 7 7 7 7 7 8 8 8 8 8 8 8 7 7 7 7 7 6 6 7 7 7 7 6 6 6 6 6 6 6 6 5 5 5
14 14 13 12 11 11 10 8 7 6 7 7 7 8 8 7 7 7 7 7 7 7 7 7 7 6 6 7 7 7 6 6 6 6 6 6 6 6 5 5 5 5
14 14 13 12 11 11 10 9 7 6 6 6 7 7 7 7 7 7 7 7 7 7 7 6 6 6 6 7 7 6 6 6 6 6 6 6 6 5 5 5 5 5
14 13 12 11 11 10 10 9 8 6 6 6 6 7 7 7 7 7 7 7 7 7 6 6 6 6 6 6 7 6 6 6 6 6 6 6 5 5 5 5 5 5
14 13 12 11 11 10 10 9 7 6 5 5 6 6 7 7 6 7 7 6 6 6 6 6 6 6 6 6 6 6 6 6 6 6 6 6 5 5 5 5 5 4
14 14 12 11 11 10 9 8 7 6 5 5 5 6 6 6 6 6 6 6 6 6 6 6 6 6 6 6 6 6 6 6 6 6 6 5 5 5 5 4 4 4
15 14 13 12 11 10 9 8 7 6 5 5 5 5 6 6 6 6 6 6 5 5 6 6 6 6 6 5 5 5 5 5 6 5 5 5 5 4 4 4 3 3
14 14 13 12 11 10 9 8 8 7 6 5 5 5 5 6 6 6 6 6 5 6 6 6 6 6 5 5 5 5 5 5 5 5 5 5 4 4 3 3 3 2
14 14 13 12 11 10 9 8 8 7 6 5 5 5 6 6 6 6 5 5 5 6 6 6 5 5 5 5 5 5 4 4 5 5 5 4 3 3 3 3 2 1
14 13 13 11 10 9 9 8 7 6 5 4 4 5 6 6 6 5 5 5 5 5 5 5 5 5 5 4 5 4 4 4 5 5 4 4 3 3 3 2 1 1
14 13 12 11 10 9 8 7 6 5 4 4 4 5 5 5 5 5 5 5 5 5 5 5 5 4 4 4 4 4 4 4 4 4 4 4 3 3 2 1 1 1
14 13 12 11 10 8 8 7 6 5 4 4 4 5 5 5 5 5 5 5 5 5 4 4 4 4 4 4 3 3 3 4 4 4 4 3 3 2 2 1 1 0
14 13 12 11 10 8 7 6 5 4 3 4 4 4 5 5 5 5 4 5 5 4 4 4 4 4 4 3 2 2 2 3 3 4 3 3 2 2 1 1 0 0
14 13 11 10 9 8 7 6 5 4 3 4 4 4 4 4 4 4 4 4 4 4 4 4 4 4 3 2 2 1 2 2 3 3 2 2 2 1 1 1 0 0
13 12 11 9 9 7 6 5 4 4 3 4 4 4 4 4 4 4 4 4 4 4 4 3 3 3 2 2 1 1 1 2 2 2 2 2 1 1 1 0 -0 -0
13 11 10 9 8 7 5 4 3 3 3 3 4 4 4 3 3 3 3 3 3 3 3 3 3 2 2 1 1 0 1 1 1 1 1 1 1 0 -0 -1 -1 -1
12 11 9 8 7 6 4 3 2 2 2 3 3 3 3 3 2 2 3 3 3 2 2 2 2 2 1 0 -0 -1 -0 0 0 0 0 -0 -0 -1 -1 -1 -1 -1
11 10 8 7 6 5 4 2 2 2 2 2 3 3 2 2 2 2 2 2 2 2 1 1 1 1 0 -1 -1 -2 -1 -1 -0 -0 -1 -1 -1 -1 -1 -2 -2 -2
10 8 7 6 5 4 3 2 1 1 2 2 2 2 2 2 2 2 2 2 1 1 0 0 0 -0 -1 -1 -2 -2 -2 -1 -1 -1 -1 -1 -2 -2 -2 -2 -2 -2
8 7 6 5 4 3 2 2 1 1 2 2 2 2 2 2 1 1 1 0 -0 -1 -1 -1 -1 -1 -1 -2 -2 -3 -2 -2 -2 -2 -2 -2 -2 -2 -2 -3 -2 -2
6 5 4 4 3 2 2 1 1 1 1 1 1 1 1 1 0 -0 -1 -1 -1 -1 -1 -1 -1 -1 -2 -2 -3 -3 -3 -3 -2 -2 -2 -2 -2 -3 -3 -3 -2 -2
Height
1494 1495 1496 1496 1498 1500 1502 1504 1507 1509 1511 1513 1515 1517 1519 1521 1523 1524 1525 1527 1528 1529 1530 1531 1532 1534 1535 1536 1537 1538 1539 1541 1543 1545 1546 1547 1548 1550 1552 1553 1555 1557
1491 1492 1492 1493 1495 1497 1499 1502 1505 1507 1509 1511 1513 1515 1517 1519 1520 1521 1523 1524 1525 1526 1527 1528 1529 1530 1531 1533 1534 1535 1536 1538 1539 1541 1543 1544 1545 1548 1550 1551 1553 1555
1488 1488 1489 1490 1492 1494 1496 1500 1502 1504 1506 1508 1510 1512 1514 1516 1517 1518 1520 1521 1522 1523 1524 1525 1526 1527 1528 1529 1531 1532 1533 1535 1536 1538 1540 1541 1543 1545 1547 1550 1552 1553
1485 1485 1486 1487 1489 1491 1494 1497 1499 1501 1503 1505 1507 1509 1510 1512 1514 1515 1517 1518 1519 1520 1521 1522 1523 1524 1525 1526 1528 1529 1530 1532 1533 1535 1536 1538 1540 1542 1545 1547 1550 1551
1482 1482 1483 1484 1486 1488 1490 1493 1495 1498 1500 1502 1504 1505 1507 1509 1510 1512 1513 1514 1515 1516 1517 1519 1520 1521 1522 1523 1525 1526 1527 1528 1530 1531 1533 1535 1537 1539 1542 1545 1546 1548
1479 1479 1480 1481 1482 1484 1486 1488 1491 1494 1496 1499 1500 1502 1504 1505 1507 1509 1510 1511 1512 1513 1514 1515 1516 1517 1519 1520 1522 1523 1524 1525 1527 1529 1530 1532 1535 1537 1540 1542 1544 1545
1476 1476 1477 1478 1479 1480 1482 1484 1487 1490 1493 1495 1497 1499 1500 1502 1504 1505 1507 1508 1509 1510 1511 1512 1513 1514 1515 1517 1519 1519 1520 1522 1525 1527 1528 1530 1533 1535 1537 1540 1542 1544
1473 1474 1474 1475 1476 1477 1478 1480 1482 1485 1488 1491 1493 1495 1497 1499 1500 1502 1504 1505 1506 1507 1507 1508 1509 1510 1512 1514 1515 1516 1518 1520 1523 1525 1526 1528 1531 1533 1535 1538 1540 1542
1471 1471 1472 1472 1473 1473 1475 1477 1479 1481 1484 1486 1488 1491 1492 1495 1497 1499 1500 1501 1503 1503 1504 1505 1506 1507 1508 1510 1512 1514 1516 1519 1521 1522 1524 1527 1529 1531 1533 1535 1537 1539
1469 1469 1469 1470 1470 1471 1472 1474 1476 1478 1480 1482 1485 1487 1488 1491 1493 1495 1496 1497 1499 1500 1501 1502 1503 1504 1506 1507 1509 1511 1514 1516 1518 1520 1523 1525 1527 1529 1531 1533 1535 1537
1466 1466 1466 1467 1468 1468 1470 1471 1473 1475 1477 1479 1481 1483 1485 1487 1489 1490 1492 1493 1495 1497 1498 1499 1501 1502 1503 1505 1506 1508 1511 1514 1516 1518 1521 1522 1525 1527 1529 1531 1532 1534
1463 1463 1464 1464 1465 1466 1467 1468 1470 1472 1474 1476 1478 1480 1482 1484 1485 1487 1488 1490 1492 1493 1494 1496 1498 1499 1501 1502 1504 1506 1508 1511 1513 1516 1518 1520 1523 1525 1526 1528 1529 1531
1460 1461 1461 1462 1462 1463 1464 1465 1467 1469 1471 1473 1475 1477 1479 1481 1482 1484 1485 1487 1488 1489 1491 1493 1495 1497 1498 1500 1502 1504 1506 1508 1511 1513 1516 1518 1521 1523 1524 1526 1527 1527
1457 1458 1458 1459 1460 1460 1461 1462 1463 1466 1468 1470 1472 1474 1476 1478 1479 1481 1483 1484 1485 1486 1488 1490 1492 1494 1496 1498 1500 1501 1504 1506 1508 1510 1513 1516 1519 1521 1522 1523 1524 1525
1454 1454 1455 1456 1456 1457 1458 1459 1461 1463 1465 1467 1469 1471 1473 1475 1476 1478 1479 1481 1482 1483 1485 1487 1489 1491 1493 1495 1497 1499 1501 1504 1506 1509 1511 1514 1516 1518 1519 1520 1521 1523
1451 1451 1452 1453 1453 1454 1455 1456 1457 1460 1462 1464 1467 1468 1470 1472 1473 1475 1476 1478 1479 1481 1483 1484 1486 1489 1491 1493 1495 1497 1499 1502 1504 1507 1509 1512 1513 1514 1516 1517 1519 1521
1448 1448 1448 1449 1450 1451 1452 1453 1454 1457 1459 1461 1463 1465 1467 1469 1470 1472 1473 1475 1477 1478 1480 1482 1484 1486 1488 1490 1492 1494 1497 1500 1502 1504 1506 1509 1510 1512 1513 1515 1516 1519
1444 1444 1445 1446 1446 1447 1449 1450 1452 1454 1456 1458 1460 1462 1464 1466 1467 1469 1471 1472 1474 1475 1477 1479 1481 1484 1485 1487 1489 1492 1495 1497 1499 1502 1504 1506 1508 1510 1512 1513 1515 1517
1441 1441 1441 1442 1443 1444 1446 1447 1448 1450 1453 1455 1458 1460 1462 1463 1464 1466 1468 1470 1471 1473 1475 1477 1479 1481 1482 1484 1486 1489 1492 1495 1498 1500 1502 1505 1507 1508 1510 1511 1513 1516
1438 1437 1438 1439 1440 1441 1443 1444 1445 1447 1450 1453 1455 1457 1459 1460 1462 1464 1466 1467 1469 1471 1473 1474 1476 1478 1479 1481 1484 1487 1490 1493 1496 1498 1500 1503 1504 1506 1507 1509 1511 1514
1434 1434 1435 1436 1437 1438 1440 1441 1443 1445 1448 1450 1452 1455 1457 1458 1460 1462 1463 1465 1466 1468 1470 1471 1473 1475 1476 1478 1481 1484 1487 1490 1493 1496 1498 1500 1502 1504 1506 1508 1510 1512
1430 1431 1432 1433 1434 1436 1437 1439 1441 1443 1445 1448 1450 1452 1454 1456 1457 1459 1460 1462 1464 1465 1467 1468 1470 1472 1473 1475 1478 1481 1485 1488 1491 1494 1496 1498 1500 1502 1504 1506 1508 1511
1427 1428 1429 1430 1432 1433 1435 1437 1439 1441 1444 1446 1448 1450 1452 1453 1455 1456 1458 1460 1461 1462 1464 1465 1467 1468 1470 1472 1475 1478 1482 1486 1489 1492 1494 1497 1499 1500 1502 1504 1507 1509
1424 1425 1426 1428 1429 1431 1433 1435 1438 1440 1442 1444 1446 1448 1450 1452 1453 1455 1456 1457 1458 1460 1461 1463 1464 1465 1467 1470 1472 1474 1479 1483 1486 1490 1493 1495 1497 1498 1500 1503 1505 1507
1421 1422 1423 1425 1427 1429 1431 1434 1436 1438 1441 1443 1445 1446 1448 1450 1451 1453 1454 1455 1456 1458 1459 1461 1462 1463 1465 1468 1470 1473 1477 1481 1484 1488 1490 1493 1495 1497 1499 1501 1503 1505
1418 1419 1421 1423 1425 1427 1430 1432 1434 1437 1439 1441 1443 1445 1446 1448 1449 1450 1452 1453 1454 1456 1457 1458 1459 1461 1463 1466 1469 1472 1476 1480 1483 1485 1488 1490 1493 1495 1497 1499 1501 1502
Wind_Speed
31 32 35 37 38 38 37 35 34 33 33 34 34 35 36 35 34 35 36 32 27 26 25 25 26 26 30 36 37 35 37 38 35 34 36 39 39 35 31 31 30 29
30 31 35 37 37 36 36 36 35 33 32 32 32 31 32 33 32 34 35 31 28 27 25 25 27 29 31 36 40 39 39 38 35 36 37 38 38 34 32 32 30 28
28 31 34 35 35 35 35 35 34 33 32 33 33 31 30 30 32 35 36 32 30 28 27 26 28 31 32 35 39 40 39 37 35 36 36 36 35 34 33 32 29 27
26 29 31 32 34 34 34 34 33 33 33 34 34 32 30 30 33 36 35 31 31 29 27 26 27 30 34 37 38 38 38 36 34 35 35 34 35 34 33 32 29 28
25 27 28 29 31 33 33 33 34 34 34 34 33 31 31 32 33 34 31 29 31 30 27 27 27 30 35 38 39 38 38 36 34 34 34 34 35 34 34 33 30 29
24 25 25 25 27 30 32 33 33 34 34 34 33 32 33 34 32 32 30 29 31 30 27 26 27 30 35 38 39 38 37 35 34 35 35 34 34 34 33 33 31 29
24 23 22 23 25 28 31 33 33 34 35 35 34 34 35 33 31 30 29 29 31 31 29 27 27 31 36 38 40 38 35 35 34 34 34 34 34 34 33 32 30 27
22 21 21 22 24 26 30 32 34 35 37 36 36 36 36 32 29 29 30 30 30 31 31 28 27 31 36 38 40 37 34 35 34 32 33 34 34 34 33 32 29 26
22 21 21 22 24 26 29 31 33 34 35 36 36 36 35 32 31 31 32 30 29 31 33 30 28 31 35 38 40 38 35 34 33 32 33 34 34 34 33 30 28 25
22 22 21 21 24 27 28 30 32 33 33 34 35 35 35 34 33 33 32 30 29 31 33 32 30 31 33 36 38 37 36 35 33 32 33 34 35 34 31 29 27 25
22 22 22 22 24 26 27 29 31 32 34 35 35 35 35 34 33 33 32 31 30 31 33 33 32 31 32 35 36 35 35 35 33 32 34 35 34 32 29 27 26 24
22 23 23 23 24 26 26 28 29 30 33 35 34 34 34 33 32 32 32 30 30 30 31 33 33 31 31 34 35 33 34 34 33 32 33 33 32 30 28 27 25 24
24 24 23 23 23 24 26 27 28 28 30 31 31 31 31 31 30 29 28 28 28 29 31 32 34 32 30 32 33 32 32 33 33 33 33 32 31 29 28 27 25 24
25 25 24 23 22 23 25 27 27 27 27 29 29 30 30 29 28 26 25 26 27 29 29 29 30 29 27 28 30 31 32 33 33 33 33 32 30 29 28 27 26 25
26 25 24 24 23 23 25 27 27 27 27 28 29 29 29 29 27 25 24 25 27 27 26 25 26 26 25 25 28 31 33 34 33 32 32 32 31 31 30 27 25 24
27 26 25 24 24 23 24 25 27 27 28 29 30 28 27 28 28 26 24 25 28 27 25 24 24 24 24 24 27 30 33 34 34 33 33 33 33 33 30 27 25 24
28 27 26 25 25 24 23 24 26 27 27 29 30 29 28 28 27 26 25 26 29 28 26 24 24 23 23 25 27 30 33 35 34 34 34 35 34 32 29 27 26 24
29 28 26 26 26 25 23 23 25 27 28 28 29 29 28 28 28 27 26 27 29 30 27 25 25 25 25 26 29 32 34 35 35 34 34 34 32 30 28 27 26 23
30 29 27 26 26 25 23 22 25 28 29 29 28 28 27 26 28 28 26 25 28 30 30 28 27 27 27 28 30 33 35 35 34 33 33 32 30 29 28 27 25 23
31 30 28 26 25 25 24 22 24 27 29 28 27 26 25 24 24 24 23 23 24 27 30 30 29 28 28 28 29 33 35 34 33 32 31 30 30 29 28 26 24 22
31 30 28 26 25 25 24 22 22 24 26 26 25 24 22 21 21 21 20 20 22 24 28 29 27 27 27 27 29 32 35 34 33 31 29 28 28 27 26 25 23 22
30 29 28 26 25 24 24 21 20 21 23 24 23 23 21 20 19 19 18 20 22 23 24 25 24 25 26 26 28 32 34 34 32 31 29 27 27 26 25 24 23 22
29 28 26 24 23 23 22 21 19 18 20 21 22 20 19 18 18 19 19 20 22 22 22 22 22 24 25 24 27 31 34 34 33 31 29 27 27 26 26 24 23 22
27 26 23 21 21 21 20 19 18 17 18 19 19 18 18 19 19 19 19 19 20 20 19 20 21 22 22 23 26 30 33 33 32 31 29 27 27 27 26 25 23 21
24 22 20 19 19 19 18 18 18 17 16 16 17 18 19 19 19 18 17 16 16 16 17 18 19 20 21 22 25 28 30 30 30 29 28 28 27 27 25 23 22 23
21 19 18 17 16 16 17 17 18 18 17 17 17 17 16 16 15 14 13 12 12 13 14 15 18 20 20 19 21 24 26 28 28 28 28 27 26 25 24 24 25 27
Wind_Direction
248 247 247 245 243 242 240 237 234 234 233 230 231 235 239 241 244 243 234 232 242 249 247 246 251 255 249 240 233 228 223 220 228 238 238 235 232 230 231 232 232 234
250 247 247 247 244 241 238 235 236 237 233 231 234 240 244 243 241 238 235 240 252 252 249 252 252 253 249 240 236 233 226 224 231 236 236 235 232 230 230 229 231 235
252 249 248 248 245 242 238 235 235 235 231 230 234 239 241 240 240 240 239 245 253 251 248 251 251 250 246 239 235 231 228 230 235 236 235 234 231 229 229 227 230 235
256 252 252 250 247 243 240 236 233 233 231 231 234 237 239 241 241 240 240 245 250 247 244 247 251 250 243 237 235 232 232 234 234 233 234 232 229 227 226 226 230 234
262 257 255 253 249 246 241 235 232 233 233 234 236 236 239 243 243 240 241 247 249 245 242 245 248 248 241 235 235 234 234 234 231 231 232 230 226 224 223 225 229 233
268 264 261 256 250 246 241 236 233 234 234 236 237 237 240 243 242 239 239 245 248 245 243 245 245 244 240 236 236 236 232 230 230 230 230 227 223 221 222 226 230 232
274 271 265 256 249 244 240 237 234 233 234 236 235 236 241 243 239 237 240 244 246 243 242 245 246 243 238 235 237 236 230 229 231 230 227 224 221 221 224 228 230 230
277 273 264 255 249 242 238 235 232 231 232 232 232 235 241 242 238 239 244 245 243 241 242 244 245 243 237 233 235 236 230 228 230 228 225 223 221 222 225 228 229 226
277 273 264 255 247 242 238 234 232 231 230 229 230 234 238 240 240 242 242 240 239 242 243 242 243 244 238 231 232 236 232 229 230 229 226 224 222 224 226 227 225 223
275 272 266 255 247 243 239 235 233 231 230 231 231 233 235 237 240 241 238 235 237 242 243 241 242 244 241 234 231 232 230 229 230 230 228 225 224 225 225 224 222 222
272 270 267 258 250 245 239 236 234 231 230 233 232 231 232 235 239 238 234 233 237 242 242 240 240 243 243 238 232 228 227 227 229 231 229 226 225 224 223 221 220 219
269 267 265 260 254 249 241 237 236 232 230 231 231 230 232 236 238 235 233 235 240 243 243 240 239 242 245 240 234 228 225 226 227 230 229 226 223 221 218 217 217 214
269 266 264 261 257 253 246 240 238 233 230 230 230 231 234 237 235 232 235 240 244 247 245 240 237 241 244 241 236 231 228 227 227 227 226 224 220 217 215 216 214 210
269 266 264 261 257 254 247 241 237 232 229 229 229 232 236 234 229 231 238 243 246 247 243 237 235 238 241 241 240 235 230 229 228 226 225 222 218 216 216 215 212 207
268 265 262 259 255 252 247 240 234 230 228 228 229 233 235 229 225 232 239 241 242 239 233 230 232 235 238 241 242 239 232 229 229 228 225 221 218 217 214 211 208 205
267 263 259 256 252 250 247 241 234 228 227 226 228 233 235 230 229 235 240 240 237 232 229 230 234 238 241 242 244 241 234 229 228 227 225 223 220 217 212 207 205 205
265 263 258 253 250 248 246 243 236 229 227 226 227 232 236 235 234 235 240 240 233 228 229 233 235 241 244 243 241 238 233 230 229 227 225 222 219 216 212 209 208 210
262 262 258 252 249 247 245 244 238 229 226 227 229 234 238 238 235 234 239 239 231 225 226 230 233 238 242 241 236 231 230 230 230 229 226 222 218 216 215 213 214 218
258 259 257 252 248 247 244 244 240 230 225 227 231 236 240 240 237 235 237 238 234 229 229 231 234 236 238 239 233 228 227 229 230 230 227 223 221 219 217 217 220 226
256 256 255 250 246 245 242 241 239 231 226 227 232 237 240 241 239 237 236 239 242 241 238 237 238 239 239 239 233 227 226 227 227 228 226 225 223 221 219 220 224 231
255 254 253 248 243 241 239 239 238 231 226 228 233 238 241 240 239 239 241 246 250 249 245 241 240 241 241 239 232 226 225 224 223 223 222 221 219 217 218 221 226 234
255 253 252 247 241 238 236 234 234 230 227 229 234 238 239 238 240 244 248 251 250 247 243 241 239 239 239 237 229 224 224 223 221 220 218 215 214 215 219 223 230 238
254 253 251 246 240 236 233 229 228 226 226 229 233 237 239 241 246 249 250 250 248 243 240 238 238 238 236 231 224 221 222 222 221 219 217 214 214 217 222 226 232 241
253 251 248 242 236 233 228 224 222 220 222 227 232 236 240 243 246 248 248 248 246 242 239 237 237 237 234 229 224 221 220 220 220 220 217 215 215 219 224 228 234 245
250 245 239 233 230 226 221 217 216 216 219 223 227 233 241 246 247 246 247 248 247 243 241 239 236 232 228 228 227 223 221 220 221 220 218 217 218 221 225 231 240 252
238 232 227 223 220 216 212 209 209 213 217 221 228 238 248 249 246 242 240 241 241 240 239 239 237 231 224 223 227 227 224 223 223 222 221 221 222 226 231 238 248 256